Regional Weather Roundup
Issued by NWS San Angelo, TX

Home | Current Version | Previous Version | Text Only | Print | Product List | Glossary On
Versions: 1 2 3 4 5 6 7 8 9 10 11 12 13 14 15 16 17 18 19 20 21 22 23 24 25 26 27 28 29 30 31 32 33 34 35 36 37 38 39 40 41 42 43 44 45 46 47 48 49 50
000
ASUS44 KSJT 250010
RWRSJT
WEST CENTRAL TEXAS REGIONAL WEATHER ROUNDUP
NATIONAL WEATHER SERVICE SAN ANGELO TX
700 PM CDT THU JUL 24 2014

NOTE: "FAIR" INDICATES FEW OR NO CLOUDS BELOW 12,000 FEET WITH NO
SIGNIFICANT WEATHER AND/OR OBSTRUCTIONS TO VISIBILITY.

TXZ049-054-064>066-071>073-076>078-098-099-113-114-127-128-139-140-
154-155-168>170-250100
...LOCATIONS ACROSS WEST CENTRAL TEXAS...

CITY           SKY/WX    TMP DP  RH WIND       PRES   REMARKS
SAN ANGELO     SUNNY     95  63  34 E13G21    29.98F
ABILENE        SUNNY     95  65  37 E13       29.99F
DYESS AFB      SUNNY     95  66  39 E10       29.97F
JUNCTION       MOSUNNY   88  65  46 SE15G22   29.98S
SWEETWATER     SUNNY     96  56  25 E13       30.04F
BROWNWOOD      SUNNY     91  66  43 E13       29.98S
COLEMAN        PTCLDY    94  62  35 SE10      29.99S
SONORA         SUNNY     95  57  28 E13       30.02S
OZONA          FAIR      95  55  26 E10G18    30.02S
BRADY          SUNNY     91  63  38 E10       29.99F
$$

TEXAS PANHANDLE/OKLAHOMA PANHANDLE

CITY           SKY/WX    TMP DP  RH WIND       PRES   REMARKS
AMARILLO       SUNNY     93  53  25 S15       30.06F
BORGER         SUNNY     98  51  20 S8        30.01F
CANADIAN       SUNNY     97  60  29 S17G23    29.96F
DALHART        SUNNY     96  50  20 S20G31    30.05F
DUMAS          CLEAR     93  54  26 S17G23    30.04F
GUYMON         NOT AVBL
HEREFORD       CLEAR     92  55  28 S14G20    30.09S
PAMPA          CLEAR     93  56  29 S16       30.04F
PERRYTON       SUNNY     99  54  22 S22G29    29.97F
$$

SOUTHERN PANHANDLE/SOUTH PLAINS/ROLLING PLAINS

CITY           SKY/WX    TMP DP  RH WIND       PRES   REMARKS
LUBBOCK        MOSUNNY   94  52  24 E5        30.07F
SNYDER         SUNNY     97  58  27 E12       30.01F
CHILDRESS      SUNNY     95  64  35 SE10      29.98F
SEMINOLE       CLEAR     97  43  15 E9G17     30.07F
$$

PERMIAN BASIN

CITY           SKY/WX    TMP DP  RH WIND       PRES   REMARKS
MIDLAND        MOSUNNY   97  55  24 SE9       30.01F
ODESSA         MOSUNNY   96  51  21 E14       30.03F
WINK           SUNNY     99  45  15 NE6       29.98F
$$

FAR WEST/SOUTHWEST MOUNTAINS/TRANS PECOS

CITY           SKY/WX    TMP DP  RH WIND       PRES   REMARKS
ALPINE         PTCLDY    90  44  20 E12G18    30.18F
DRYDEN           N/A     96  59  29 N10G21    29.96F
EL PASO        MOSUNNY   95  48  20 SE6       30.04F
FORT STOCKTON  PTSUNNY   95  52  23 SE10      30.02F
GUADALUPE PASS MOSUNNY   86  41  20 E13G23      N/A
MARFA          MOSUNNY   88  46  23 E12G17    30.18F
PECOS          PTCLDY    96  50  21 SE8       29.98F
$$

DALLAS/FORT WORTH METROPLEX

CITY           SKY/WX    TMP DP  RH WIND       PRES   REMARKS
DFW AIRPORT    SUNNY     94  63  35 E9        29.95F
FTW MEACHAM    SUNNY     95  62  33 E10       29.94F
DAL-EXECUTIVE  SUNNY     94  65  38 E10       29.95F
GRAND PRAIRIE  SUNNY     93  61  33 E9        29.96F
ADDISON        SUNNY     91  64  40 E6        29.96F
MESQUITE       NOT AVBL
LANCASTER      CLEAR     92  63  38 E6        29.95F
$$

NORTH CENTRAL TEXAS

CITY           SKY/WX    TMP DP  RH WIND       PRES   REMARKS
SHRMAN/DENISON CLEAR     92  64  40 E8        29.97F
GAINESVILLE    SUNNY     91  66  44 SE7       29.98F
BRIDGEPORT     CLEAR     92  64  39 E8        29.97F
DENTON         SUNNY     91  66  43 SE7       29.95F
WAXAHACHIE     CLEAR     92  61  35 E6        29.96F
GRANBURY       CLEAR     96  62  31 E9        29.96S
$$

WESTERN NORTH TEXAS

CITY           SKY/WX    TMP DP  RH WIND       PRES   REMARKS
WICHITA FALLS  SUNNY     92  70  48 S8        29.94F
VERNON         CLEAR     97  63  32 S10       29.96F
BRECKENRIDGE   PTCLDY    98  60  29 E10       29.95F
COMANCHE       SUNNY     92  65  41 E9        29.98F
$$

CENTRAL AND SOUTH CENTRAL TEXAS

CITY           SKY/WX    TMP DP  RH WIND       PRES   REMARKS
AUSTIN/BERGSTM MOSUNNY   92  69  47 E9        29.93F
WACO           SUNNY     95  63  34 E9        29.93F
HILLSBORO      CLEAR     93  63  36 E8        29.95F
TEMPLE         SUNNY     91  66  43 E9        29.95F
KILLEEN-GRAY   MOSUNNY   90  66  45 E7        29.96F
FORT HOOD      MOSUNNY   93  68  43 E7G23     29.96F
GEORGETOWN     SUNNY     91  68  46 VRB6      29.94F
LAGO VISTA     FAIR      91  64  41 E6        29.98S
SAN MARCOS     SUNNY     90  66  45 E8        29.95S
NEW BRAUNFELS  MOSUNNY   93  66  40 E9        29.93F
RANDOLPH AFB   SUNNY     92  64  39 E7        29.95S
SAN ANTONIO    MOSUNNY   92  67  43 E8        29.95S
STINSON        SUNNY     93  63  36 E12       29.92F
PLEASANTON     NOT AVBL
LA GRANGE      MOSUNNY   92  72  52 CALM      29.92R
GIDDINGS       CLEAR     90  68  48 CALM      29.98R
$$

EAST TEXAS

CITY           SKY/WX    TMP DP  RH WIND       PRES   REMARKS
PARIS          SUNNY     88  70  55 E8        29.98F
CLARKSVILLE    CLEAR     86  72  62 E6        29.98F
TYLER          SUNNY     88  71  57 E8        29.96F
LONGVIEW       MOSUNNY   85  71  63 NE7       29.96F
PALESTINE      NOT AVBL
NACOGDOCHES    SUNNY     88  72  58 E7        29.96F
$$

TEXAS HILL COUNTRY AND EDWARDS PLATEAU

CITY           SKY/WX    TMP DP  RH WIND       PRES   REMARKS
LLANO          PTCLDY    93  66  40 SE9       29.98F
HORSESHOE BAY  FAIR      92  61  34 E8        29.96F
KERRVILLE      SUNNY     83  70  64 CALM      30.00F
FREDERICKSBRG  MOSUNNY   90  60  36 E7        29.99S
ROCKSPRINGS    TSTM      70  68  94 SW9G25    30.08R VSB<1/4
HONDO          MOSUNNY   91  68  46 E7        29.97F
UVALDE         CLOUDY    89  66  45 NE12      29.96S
DEL RIO        CLOUDY    87  60  40 E9        29.89F
$$

SOUTHEAST TEXAS

CITY           SKY/WX    TMP DP  RH WIND       PRES   REMARKS
COLLEGE STN    SUNNY     90  68  48 E8        29.93F
CALDWELL       CLEAR     90  66  45 NE5       29.97S
CROCKETT       CLEAR     91  73  55 CALM      29.97F
BRENHAM        SUNNY     91  65  43 E6        29.94S
HUNTSVILLE     SUNNY     90  68  48 VRB3      29.95S
CONROE         SUNNY     89  74  60 CALM      29.94F
HOUSTON BUSH   SUNNY     88  72  58 SE6       29.93S
HOUSTON HOBBY  MOSUNNY   88  72  58 S6        29.92F
PERLAND        SUNNY     87  71  58 VRB3      29.94F
WHARTON        PTCLDY    86  74  68 SE9       29.94S
$$

THE UPPER TEXAS COAST

CITY           SKY/WX    TMP DP  RH WIND       PRES   REMARKS
ORANGE         CLEAR     88  71  57 N5        29.93F
PORT ARTHUR    SUNNY     90  71  53 NE8       29.92F
GALVESTON      PTSUNNY   87  73  62 S9        29.94S
ANGLETON       SUNNY     86  70  58 S7        29.94S
BAY CITY       CLEAR     87  75  66 SE5       29.94S
$$

TEXAS COASTAL BEND, RIO GRANDE PLAINS DEEP SOUTH TEXAS

CITY           SKY/WX    TMP DP  RH WIND       PRES   REMARKS
VICTORIA       SUNNY     94  67  41 S8        29.93S
BEEVILLE       FAIR      90  70  51 SE10      29.93S
ROCKPORT       MOSUNNY   87  73  62 SE14      29.93S
PORT ARANSAS   MOCLDY    84  74  72 SE10      29.94S
PORT LAVACA    PTCLDY    85  73  67 SE9       29.93S
CORPUS CHRISTI PTSUNNY   91  68  46 SE12      29.93S
KINGSVILLE NAS PTSUNNY   89  74  60 SE10      29.92S
COTULLA        PTSUNNY   91  66  43 SE13      29.92S
LAREDO         PTSUNNY   95  67  39 E13G21    29.93S
BROWNSVILLE    MOSUNNY   88  74  63 SE15      29.93S
PORT ISABEL    PTSUNNY   88  75  65 SE20      29.93S
HEBBRONVILLE   MOCLDY    89  71  55 NE9       29.93F
MCALLEN        PTSUNNY   95  69  42 SE22      29.89R
WESLACO        MOSUNNY   92  68  45 SE16G24   29.90R
FALFURRIAS     MOCLDY    87  69  55 E9        29.91S
EDINBURG       CLEAR     94  71  47 E17G25    29.90S
$$


USA.gov is the U.S. government's official web portal to all federal, state and local government web resources and services.